Danbury, CT

12:59 PM EDT on May 26, 2017 (GMT -0400)
Danbury Municipal

Weather History for KDXR - November, 2012

Change the Weather History Date:

Monday, November 26, 2012

  Actual Average Record
Temperature  
Mean Temperature 34 °F -  
Max Temperature 45 °F 48 °F 64 °F (1979)
Min Temperature 24 °F 29 °F 10 °F (1993)
Degree Days  
Heating Degree Days 30    
Moisture  
Dew Point 20 °F    
Average Humidity 55    
Maximum Humidity 81    
Minimum Humidity 34    
Precipitation  
Precipitation 0.00 in - - ()
Sea Level Pressure  
Sea Level Pressure 30.10 in    
Wind  
Wind Speed 6 mph (West)    
Max Wind Speed 17 mph    
Max Gust Speed 28 mph    
Visibility 10 miles    
Events      
Averages and records for this station are not official NWS values.
T = Trace of Precipitation, MM = Missing Value Source: NWS Daily Summary

Daily Weather History Graph

Daily Weather History Graph

Search for Another Location

Airport or City:

Trip Planner

Search our weather history database for the weather conditions in past years. The results will help you decide how hot, cold, wet, or windy it might be!

Date:

Astronomy

Nov. 26, 2012 Rise Set
Actual Time 6:55 AM EST 4:26 PM EST
Civil Twilight 6:25 AM EST 4:57 PM EST
Nautical Twilight 5:51 AM EST 5:31 PM EST
Astronomical Twilight 5:17 AM EST 6:04 PM EST
Moon 3:18 PM EST 5:02 AM EST
Length of Visible Light 10h 32m
Length of Day
9h 31m
Waxing Gibbous, 97% of the Moon is Illuminated
Nov 26
Waxing Gibbous
Nov 28
Full
Dec 6
Last Quarter
Dec 13
New
Dec 20
First Quarter

Hourly Weather History & Observations

Time (EST) Temp. Windchill Dew Point Humidity Pressure Visibility Wind Dir Wind Speed Gust Speed Precip Events Conditions
12:53 AM 34.0 °F 28.8 °F 21.0 °F 59% 29.94 in 10.0 mi SW 5.8 mph - N/A   Overcast
1:53 AM 34.0 °F 31.0 °F 21.9 °F 61% 29.95 in 10.0 mi WSW 3.5 mph - N/A   Overcast
2:53 AM 35.1 °F 30.1 °F 21.0 °F 57% 29.96 in 10.0 mi WSW 5.8 mph - N/A   Overcast
3:53 AM 35.1 °F 32.2 °F 21.0 °F 57% 29.96 in 10.0 mi West 3.5 mph - N/A   Overcast
4:53 AM 36.0 °F 31.1 °F 21.9 °F 57% 29.98 in 10.0 mi WSW 5.8 mph - N/A   Overcast
5:53 AM 36.0 °F 32.1 °F 21.9 °F 57% 29.99 in 10.0 mi WSW 4.6 mph - N/A   Overcast
6:53 AM 36.0 °F 31.1 °F 21.9 °F 57% 30.01 in 10.0 mi WSW 5.8 mph - N/A   Overcast
7:53 AM 36.0 °F 29.6 °F 21.9 °F 57% 30.03 in 10.0 mi WSW 8.1 mph - N/A   Clear
8:53 AM 41.0 °F 35.2 °F 21.9 °F 47% 30.06 in 10.0 mi WNW 9.2 mph - N/A   Clear
9:53 AM 41.0 °F 32.5 °F 21.0 °F 45% 30.08 in 10.0 mi West 17.3 mph 27.6 mph N/A   Clear
10:53 AM 43.0 °F 37.2 °F 21.0 °F 42% 30.09 in 10.0 mi West 10.4 mph 17.3 mph N/A   Clear
11:53 AM 45.0 °F 38.9 °F 21.0 °F 39% 30.09 in 10.0 mi West 12.7 mph 17.3 mph N/A   Partly Cloudy
12:53 PM 45.0 °F 40.6 °F 19.0 °F 36% 30.10 in 10.0 mi NW 8.1 mph 17.3 mph N/A   Partly Cloudy
1:53 PM 45.0 °F 40.6 °F 19.0 °F 36% 30.11 in 10.0 mi WNW 8.1 mph - N/A   Mostly Cloudy
2:53 PM 45.0 °F 41.2 °F 18.0 °F 34% 30.11 in 10.0 mi WNW 6.9 mph - N/A   Clear
3:53 PM 44.1 °F 39.0 °F 18.0 °F 35% 30.14 in 10.0 mi NW 9.2 mph - N/A   Clear
4:53 PM 41.0 °F - 18.0 °F 40% 30.16 in 10.0 mi Calm Calm - N/A   Clear
5:53 PM 35.1 °F - 19.9 °F 54% 30.19 in 9.0 mi Calm Calm - N/A   Clear
6:53 PM 30.0 °F - 21.0 °F 69% 30.21 in 10.0 mi Calm Calm - N/A   Clear
7:53 PM 28.0 °F - 19.9 °F 72% 30.23 in 10.0 mi Calm Calm - N/A   Clear
8:53 PM 28.0 °F 24.2 °F 21.0 °F 75% 30.25 in 10.0 mi SW 3.5 mph - N/A   Clear
9:53 PM 25.0 °F - 19.9 °F 81% 30.25 in 10.0 mi Calm Calm - N/A   Clear
10:53 PM 24.1 °F - 19.0 °F 81% 30.26 in 10.0 mi Calm Calm - N/A   Clear
11:53 PM 25.0 °F - 19.9 °F 81% 30.27 in 10.0 mi Calm Calm - N/A   Clear